Date String (YYYY-MM-DD hh:mm:ss) UTC,Instrument flags,absolute air pressure of the measurement (hPa),sample flow rate (lpm),inlet stack bypass flow (lpm),air temperature of the measurement (°C),ambient temperature measured by the external sensor (°C),aerosol sample conditioner tube jacket temperature (°C),OPC LED temperature (°C),internal box temperature (°C),relative humidity of the measurement (%),span deviation,mass concentration of particles derived from Lorenz-Mie calculation of OPC scattering (μg/m³),mass concentration of particles derived from Lorenz-Mie calculation of OPC scattering (μg/m³),mass concentration of particles derived from Lorenz-Mie calculation of OPC scattering (μg/m³)
DateTimeUTC,F1_M11,P_M11,Q1_M11,Q2_M11,T1_M11,T2_M11,T3_M11,T4_M11,T5_M11,U1_M11,ZSPAN_M11,X0_M11,X2_M11,X1_M11
2023-07-15 04:00:00,SystemResetWarning,0836.2,5.00,000.00,029.4,026.0,000.0,037.7,030.8,32.0,0000.0,0014.81,0005.55,0004.41
2023-07-15 04:01:00,SystemResetWarning,0836.3,5.01,000.00,029.4,025.3,000.0,037.6,030.6,32.0,0000.0,0014.36,0005.51,0004.41
2023-07-15 04:02:00,SystemResetWarning,0836.3,5.01,000.00,029.3,025.4,000.0,037.6,030.3,32.0,0000.0,0014.17,0005.55,0004.42
2023-07-15 04:03:00,SystemResetWarning,0836.2,5.00,000.00,029.2,025.8,000.0,037.6,030.4,32.0,0000.0,0013.51,0005.56,0004.43
2023-07-15 04:04:00,SystemResetWarning,0836.2,5.00,000.00,029.2,026.2,000.0,037.7,030.5,32.1,0000.0,0012.86,0005.52,0004.41
2023-07-15 04:05:00,SystemResetWarning,0836.3,5.01,000.00,029.2,026.6,000.0,037.7,030.6,32.1,0000.0,0012.77,0005.50,0004.39
2023-07-15 04:06:00,SystemResetWarning,0836.3,5.01,000.00,029.2,027.0,000.0,037.7,030.7,32.1,0000.0,0012.43,0005.47,0004.37
2023-07-15 04:07:00,SystemResetWarning,0836.4,5.00,000.00,029.2,027.3,000.0,037.7,030.7,32.0,0000.0,0012.86,0005.41,0004.35
2023-07-15 04:08:00,SystemResetWarning,0836.4,4.98,000.00,029.3,027.5,000.0,037.7,030.8,31.6,0000.0,0012.71,0005.33,0004.33
2023-07-15 04:09:00,SystemResetWarning,0836.3,5.00,000.00,029.3,027.7,000.0,037.7,030.9,31.6,0000.0,0012.62,0005.30,0004.31
2023-07-15 04:10:00,SystemResetWarning,0836.4,5.00,000.00,029.3,027.9,000.0,037.7,030.9,31.2,0000.0,0011.93,0005.25,0004.29
2023-07-15 04:11:00,SystemResetWarning,0836.4,5.01,000.00,029.4,028.0,000.0,037.7,031.0,30.9,0000.0,0011.34,0005.24,0004.28
2023-07-15 04:12:00,SystemResetWarning,0836.4,5.00,000.00,029.4,028.2,000.0,037.8,031.0,30.9,0000.0,0010.99,0005.21,0004.26
2023-07-15 04:13:00,SystemResetWarning,0836.4,4.98,000.00,029.4,027.4,000.0,037.7,031.0,30.9,0000.0,0011.83,0005.15,0004.25
2023-07-15 04:14:00,SystemResetWarning,0836.4,5.01,000.00,029.4,025.8,000.0,037.6,030.8,31.1,0000.0,0012.71,0005.06,0004.23
2023-07-15 04:15:00,SystemResetWarning,0836.4,5.02,000.00,029.3,025.2,000.0,037.5,030.5,31.3,0000.0,0012.56,0005.04,0004.23
2023-07-15 04:16:00,SystemResetWarning,0836.4,5.00,000.00,029.2,025.4,000.0,037.5,030.4,31.3,0000.0,0012.89,0004.99,0004.21
2023-07-15 04:17:00,SystemResetWarning,0836.5,5.00,000.00,029.1,025.8,000.0,037.6,030.4,31.0,0000.0,0012.85,0004.93,0004.20
2023-07-15 04:18:00,SystemResetWarning,0836.5,4.99,000.00,029.1,026.2,000.0,037.6,030.5,30.9,0000.0,0013.27,0004.92,0004.17
2023-07-15 04:19:00,SystemResetWarning,0836.5,5.00,000.00,029.1,026.6,000.0,037.6,030.6,31.0,0000.0,0013.99,0004.98,0004.17
2023-07-15 04:20:00,SystemResetWarning,0836.5,5.00,000.00,029.1,027.0,000.0,037.6,030.7,31.2,0000.0,0014.19,0004.97,0004.16
2023-07-15 04:21:00,SystemResetWarning,0836.5,5.00,000.00,029.2,027.3,000.0,037.6,030.7,31.2,0000.0,0014.13,0004.98,0004.14
2023-07-15 04:22:00,SystemResetWarning,0836.5,5.00,000.00,029.2,027.5,000.0,037.6,030.8,31.1,0000.0,0014.03,0004.93,0004.13
2023-07-15 04:23:00,SystemResetWarning,0836.5,5.00,000.00,029.2,027.7,000.0,037.7,030.8,31.2,0000.0,0014.03,0004.91,0004.11
2023-07-15 04:24:00,SystemResetWarning,0836.6,5.00,000.00,029.3,027.9,000.0,037.7,030.9,31.2,0000.0,0013.32,0004.91,0004.10
2023-07-15 04:25:00,SystemResetWarning,0836.6,5.00,000.00,029.3,028.0,000.0,037.7,031.0,31.2,0000.0,0012.38,0004.89,0004.09
2023-07-15 04:26:00,SystemResetWarning,0836.6,4.98,000.00,029.3,028.2,000.0,037.7,031.0,31.0,0000.0,0012.28,0004.87,0004.08
2023-07-15 04:27:00,SystemResetWarning,0836.6,5.00,000.00,029.4,028.0,000.0,037.7,031.0,31.0,0000.0,0011.88,0004.86,0004.06
2023-07-15 04:28:00,SystemResetWarning,0836.5,4.99,000.00,029.4,026.3,000.0,037.6,030.9,31.2,0000.0,0011.94,0004.88,0004.05
2023-07-15 04:29:00,SystemResetWarning,0836.5,5.00,000.00,029.3,025.3,000.0,037.5,030.6,31.4,0000.0,0011.39,0004.88,0004.06
2023-07-15 04:30:00,SystemResetWarning,0836.4,5.01,000.00,029.2,025.3,000.0,037.5,030.4,31.6,0000.0,0011.02,0004.86,0004.05
2023-07-15 04:31:00,SystemResetWarning,0836.4,5.01,000.00,029.1,025.6,000.0,037.6,030.4,31.7,0000.0,0010.99,0004.86,0004.05
2023-07-15 04:32:00,SystemResetWarning,0836.4,4.99,000.00,029.1,026.0,000.0,037.6,030.4,31.6,0000.0,0011.25,0004.80,0004.05
2023-07-15 04:33:00,SystemResetWarning,0836.4,5.00,000.00,029.1,026.4,000.0,037.6,030.5,31.0,0000.0,0011.42,0004.80,0004.06
2023-07-15 04:34:00,SystemResetWarning,0836.4,5.00,000.00,029.1,026.8,000.0,037.6,030.6,31.0,0000.0,0011.78,0004.85,0004.05
2023-07-15 04:35:00,SystemResetWarning,0836.4,5.00,000.00,029.1,027.1,000.0,037.6,030.7,30.9,0000.0,0012.14,0004.86,0004.04
2023-07-15 04:36:00,SystemResetWarning,0836.5,5.00,000.00,029.2,027.4,000.0,037.6,030.7,30.7,0000.0,0012.28,0004.90,0004.04
2023-07-15 04:37:00,SystemResetWarning,0836.5,5.00,000.00,029.2,027.6,000.0,037.6,030.8,30.6,0000.0,0012.53,0004.95,0004.04
2023-07-15 04:38:00,SystemResetWarning,0836.5,5.01,000.00,029.2,027.8,000.0,037.7,030.9,30.6,0000.0,0012.67,0005.03,0004.06
2023-07-15 04:39:00,SystemResetWarning,0836.5,4.99,000.00,029.3,027.9,000.0,037.7,030.9,30.7,0000.0,0013.03,0005.05,0004.08
2023-07-15 04:40:00,SystemResetWarning,0836.5,4.99,000.00,029.3,028.1,000.0,037.7,031.0,30.8,0000.0,0012.86,0005.08,0004.11
2023-07-15 04:41:00,SystemResetWarning,0836.5,5.01,000.00,029.3,028.2,000.0,037.7,031.0,30.7,0000.0,0012.51,0005.09,0004.12
2023-07-15 04:42:00,SystemResetWarning,0836.5,5.01,000.00,029.4,028.3,000.0,037.7,031.1,30.3,0000.0,0012.44,0005.07,0004.12
2023-07-15 04:43:00,SystemResetWarning,0836.4,4.99,000.00,029.4,027.3,000.0,037.7,031.0,30.2,0000.0,0013.09,0005.07,0004.12
2023-07-15 04:44:00,SystemResetWarning,0836.4,4.99,000.00,029.3,025.7,000.0,037.6,030.8,30.4,0000.0,0012.91,0005.08,0004.13
2023-07-15 04:45:00,SystemResetWarning,0836.3,5.01,000.00,029.3,025.2,000.0,037.5,030.5,30.6,0000.0,0013.43,0005.10,0004.13
2023-07-15 04:46:00,SystemResetWarning,0836.3,5.00,000.00,029.1,025.5,000.0,037.5,030.3,30.6,0000.0,0013.70,0005.11,0004.14
2023-07-15 04:47:00,SystemResetWarning,0836.3,5.00,000.00,029.1,025.9,000.0,037.6,030.4,30.5,0000.0,0013.17,0005.07,0004.14
2023-07-15 04:48:00,SystemResetWarning,0836.4,5.00,000.00,029.1,026.3,000.0,037.6,030.5,30.5,0000.0,0012.96,0005.07,0004.14
2023-07-15 04:49:00,SystemResetWarning,0836.4,5.00,000.00,029.1,026.7,000.0,037.6,030.6,30.5,0000.0,0012.59,0004.95,0004.12
2023-07-15 04:50:00,SystemResetWarning,0836.4,5.01,000.00,029.1,027.0,000.0,037.6,030.7,30.5,0000.0,0012.01,0004.89,0004.11
2023-07-15 04:51:00,SystemResetWarning,0836.4,5.00,000.00,029.1,027.3,000.0,037.6,030.7,30.5,0000.0,0011.98,0004.84,0004.09
2023-07-15 04:52:00,SystemResetWarning,0836.4,5.00,000.00,029.2,027.5,000.0,037.6,030.8,30.6,0000.0,0011.82,0004.79,0004.08
2023-07-15 04:53:00,SystemResetWarning,0836.4,4.99,000.00,029.2,027.7,000.0,037.6,030.8,31.2,0000.0,0011.62,0004.81,0004.07
2023-07-15 04:54:00,SystemResetWarning,0836.4,5.00,000.00,029.2,027.9,000.0,037.7,030.9,30.6,0000.0,0010.72,0004.86,0004.08
2023-07-15 04:55:00,SystemResetWarning,0836.4,5.00,000.00,029.3,028.0,000.0,037.7,030.9,31.0,0000.0,0010.50,0004.86,0004.08
2023-07-15 04:56:00,SystemResetWarning,0836.4,4.99,000.00,029.3,028.1,000.0,037.7,031.0,33.1,0000.0,0009.51,0004.83,0004.09
2023-07-15 04:57:00,SystemResetWarning,0836.4,5.01,000.00,029.4,028.2,000.0,037.7,031.0,32.4,0000.0,0008.62,0004.78,0004.08
2023-07-15 04:58:00,SystemResetWarning,0836.4,5.01,000.00,029.4,028.3,000.0,037.8,031.1,30.9,0000.0,0008.50,0004.75,0004.08
2023-07-15 04:59:00,SystemResetWarning,0836.4,4.98,000.00,029.4,027.2,000.0,037.7,031.0,31.2,0000.0,0008.43,0004.74,0004.09
